Location: *
(45.5667°S, 177.5167°W)
Time: 23:13:49
(UTC+00:00)

SL-16 R/B - Pass Details

Date: 29 May 2022
Orbit: 842 x 846 km, 71.0° (Epoch: 24 June)

Event Time Altitude Azimuth Distance (km) Brightness Sun altitude
Rises 06:23:28 0° 205° (SSW) 3,439 5.6 -21.4°
Reaches altitude 10° 06:25:59 10° 201° (SSW) 2,497 4.8 -21.8°
Maximum altitude 06:31:41 64° 119° (ESE) 947 2.1 -22.8°
Enters shadow 06:33:14 46° 61° (ENE) 1,138 2.5 -23.1°
